| time (UTC) | temp C | wind direction | speed KPH | gust KPH | rain 1hr cm | rain 24hr cm | rain mn cm | humidity % | barometer mb |
| 20260507085542 | 8 | 257 | 4.8 | 11.3 | 0.00 | 0.66 | 0.03 | 87 | 1007.3 |
| 20260507085042 | 8 | 258 | 3.2 | 9.7 | 0.00 | 0.66 | 0.03 | 87 | 1007.3 |
| 20260507084553 | 8 | 266 | 1.6 | 11.3 | 0.00 | 0.66 | 0.03 | 87 | 1007.6 |
| 20260507084043 | 8 | 265 | 4.8 | 14.5 | 0.00 | 0.66 | 0.03 | 87 | 1007.4 |
| 20260507083540 | 8 | 250 | 3.2 | 12.9 | 0.00 | 0.66 | 0.03 | 87 | 1007.2 |
| 20260507083039 | 8 | 241 | 3.2 | 11.3 | 0.00 | 0.66 | 0.03 | 86 | 1007.2 |
| 20260507082541 | 8 | 241 | 3.2 | 12.9 | 0.00 | 0.66 | 0.03 | 86 | 1007.0 |
| 20260507082037 | 8 | 259 | 4.8 | 14.5 | 0.00 | 0.66 | 0.03 | 86 | 1007.1 |
| 20260507081540 | 8 | 257 | 4.8 | 14.5 | 0.00 | 0.66 | 0.03 | 86 | 1007.2 |
| 20260507081039 | 9 | 243 | 4.8 | 14.5 | 0.00 | 0.66 | 0.03 | 85 | 1007.1 |
| 20260507080535 | 9 | 280 | 3.2 | 14.5 | 0.00 | 0.66 | 0.03 | 85 | 1006.9 |
| 20260507080036 | 9 | 250 | 4.8 | 14.5 | 0.00 | 0.66 | 0.03 | 85 | 1007.2 |
| 20260507075534 | 9 | 241 | 3.2 | 14.5 | 0.00 | 0.66 | 0.03 | 85 | 1007.2 |
| 20260507075034 | 9 | 260 | 6.4 | 14.5 | 0.00 | 0.66 | 0.03 | 85 | 1007.3 |
| 20260507074533 | 9 | 217 | 4.8 | 19.3 | 0.00 | 0.66 | 0.03 | 85 | 1007.4 |
| 20260507074032 | 9 | 301 | 8.0 | 19.3 | 0.00 | 0.66 | 0.03 | 85 | 1007.2 |
| 20260507073531 | 9 | 254 | 4.8 | 17.7 | 0.00 | 0.66 | 0.03 | 86 | 1006.9 |
| 20260507073031 | 9 | 264 | 6.4 | 16.1 | 0.00 | 0.66 | 0.03 | 86 | 1006.8 |
| 20260507072531 | 9 | 268 | 4.8 | 16.1 | 0.00 | 0.66 | 0.03 | 86 | 1006.9 |
| 20260507072030 | 10 | 261 | 6.4 | 16.1 | 0.00 | 0.66 | 0.03 | 86 | 1006.9 |
| 20260507071529 | 10 | 224 | 6.4 | 14.5 | 0.00 | 0.66 | 0.03 | 87 | 1006.7 |
| 20260507071029 | 10 | 285 | 4.8 | 14.5 | 0.00 | 0.66 | 0.03 | 87 | 1006.8 |
| 20260507070528 | 10 | 303 | 6.4 | 14.5 | 0.00 | 0.66 | 0.03 | 86 | 1007.0 |
| 20260507070031 | 10 | 289 | 4.8 | 12.9 | 0.00 | 0.66 | 0.03 | 86 | 1007.0 |
| 20260507065528 | 10 | 272 | 3.2 | 16.1 | 0.00 | 0.66 | 0.03 | 86 | 1006.8 |
| 20260507065027 | 10 | 222 | 4.8 | 16.1 | 0.00 | 0.66 | 0.03 | 86 | 1006.6 |
| 20260507064527 | 10 | 264 | 3.2 | 14.5 | 0.00 | 0.66 | 0.03 | 86 | 1006.8 |
| 20260507064026 | 10 | 265 | 6.4 | 14.5 | 0.00 | 0.66 | 0.03 | 86 | 1006.7 |
| 20260507063527 | 10 | 241 | 3.2 | 12.9 | 0.00 | 0.66 | 0.03 | 86 | 1006.9 |
| 20260507063024 | 10 | 248 | 3.2 | 12.9 | 0.00 | 0.66 | 0.03 | 86 | 1006.6 |
| 20260507062524 | 10 | 280 | 6.4 | 12.9 | 0.00 | 0.66 | 0.03 | 86 | 1006.6 |
| 20260507062024 | 10 | 272 | 3.2 | 14.5 | 0.00 | 0.66 | 0.03 | 86 | 1006.7 |
| 20260507061524 | 10 | 243 | 4.8 | 14.5 | 0.00 | 0.66 | 0.03 | 86 | 1006.7 |
| 20260507061022 | 10 | 325 | 4.8 | 16.1 | 0.00 | 0.66 | 0.03 | 87 | 1006.7 |
| 20260507060521 | 10 | 254 | 6.4 | 22.5 | 0.00 | 0.66 | 0.03 | 87 | 1006.7 |
| 20260507060021 | 10 | 277 | 8.0 | 22.5 | 0.00 | 0.66 | 0.03 | 88 | 1006.8 |
| 20260507055521 | 10 | 257 | 4.8 | 16.1 | 0.00 | 0.66 | 0.03 | 88 | 1006.9 |
| 20260507055022 | 10 | 281 | 3.2 | 17.7 | 0.00 | 0.66 | 0.03 | 88 | 1007.0 |
| 20260507054527 | 10 | 300 | 8.0 | 17.7 | 0.00 | 0.66 | 0.03 | 88 | 1007.0 |
| 20260507054019 | 10 | 258 | 4.8 | 17.7 | 0.00 | 0.66 | 0.03 | 88 | 1007.1 |
| 20260507053518 | 10 | 244 | 4.8 | 17.7 | 0.00 | 0.66 | 0.03 | 88 | 1007.2 |
| 20260507053018 | 10 | 253 | 4.8 | 11.3 | 0.00 | 0.66 | 0.03 | 88 | 1007.1 |
| 20260507052517 | 10 | 241 | 3.2 | 9.7 | 0.00 | 0.66 | 0.03 | 89 | 1006.8 |
| 20260507052017 | 10 | 251 | 1.6 | 12.9 | 0.00 | 0.66 | 0.03 | 89 | 1007.1 |
| 20260507051517 | 10 | 222 | 4.8 | 12.9 | 0.00 | 0.66 | 0.03 | 89 | 1007.3 |
| 20260507051016 | 10 | 252 | 1.6 | 11.3 | 0.00 | 0.66 | 0.03 | 89 | 1007.1 |
| 20260507050516 | 10 | 238 | 4.8 | 12.9 | 0.00 | 0.66 | 0.03 | 89 | 1006.9 |
| 20260507050021 | 10 | 245 | 3.2 | 14.5 | 0.03 | 0.66 | 0.03 | 89 | 1006.9 |
| 20260507045516 | 10 | 275 | 4.8 | 20.9 | 0.03 | 0.66 | 0.03 | 89 | 1006.9 |
| 20260507045015 | 10 | 249 | 4.8 | 20.9 | 0.03 | 0.66 | 0.03 | 90 | 1006.9 |
| 20260507044515 | 10 | 287 | 8.0 | 20.9 | 0.03 | 0.66 | 0.03 | 90 | 1006.8 |
| 20260507044013 | 11 | 253 | 4.8 | 14.5 | 0.03 | 0.66 | 0.03 | 90 | 1006.8 |
| 20260507043513 | 11 | 261 | 4.8 | 14.5 | 0.03 | 0.66 | 0.03 | 90 | 1006.8 |
| 20260507043020 | 11 | 291 | 4.8 | 14.5 | 0.03 | 0.66 | 0.03 | 90 | 1006.9 |
| 20260507042510 | 11 | 309 | 3.2 | 20.9 | 0.03 | 0.66 | 0.03 | 90 | 1007.0 |
| 20260507042011 | 11 | 257 | 8.0 | 20.9 | 0.03 | 0.66 | 0.03 | 90 | 1007.1 |
| 20260507041508 | 11 | 256 | 6.4 | 19.3 | 0.03 | 0.66 | 0.03 | 90 | 1007.1 |
| 20260507041007 | 11 | 226 | 4.8 | 19.3 | 0.03 | 0.66 | 0.03 | 90 | 1007.3 |
| 20260507040507 | 12 | 258 | 6.4 | 19.3 | 0.00 | 0.64 | 0.00 | 90 | 1007.2 |
| 20260507040005 | 12 | 303 | 6.4 | 22.5 | 0.00 | 0.64 | 0.00 | 90 | 1007.0 |
| 20260507035503 | 12 | 359 | 6.4 | 22.5 | 0.00 | 0.64 | 0.64 | 91 | 1006.8 |
| 20260507035001 | 13 | 283 | 4.8 | 14.5 | 0.00 | 0.64 | 0.64 | 91 | 1006.6 |
| 20260507034601 | 13 | 347 | 3.2 | 14.5 | 0.00 | 0.64 | 0.64 | 91 | 1006.4 |
| 20260507034059 | 13 | 253 | 3.2 | 17.7 | 0.00 | 0.64 | 0.64 | 91 | 1006.3 |
| 20260507033559 | 13 | 231 | 6.4 | 20.9 | 0.00 | 0.64 | 0.64 | 92 | 1006.1 |
| 20260507033102 | 13 | 285 | 6.4 | 20.9 | 0.00 | 0.64 | 0.64 | 91 | 1006.0 |
| 20260507032556 | 13 | 359 | 4.8 | 17.7 | 0.00 | 0.64 | 0.64 | 92 | 1006.0 |
| 20260507032055 | 13 | 359 | 6.4 | 30.6 | 0.00 | 0.64 | 0.64 | 92 | 1005.8 |
| 20260507031555 | 13 | 264 | 11.3 | 30.6 | 0.00 | 0.64 | 0.64 | 92 | 1005.9 |
| 20260507031053 | 14 | 241 | 11.3 | 22.5 | 0.00 | 0.64 | 0.64 | 92 | 1005.9 |
| 20260507030557 | 14 | 253 | 9.7 | 20.9 | 0.00 | 0.64 | 0.64 | 92 | 1005.8 |
| 20260507030052 | 15 | 241 | 4.8 | 16.1 | 0.00 | 0.64 | 0.64 | 92 | 1005.8 |
| 20260507025551 | 14 | 237 | 4.8 | 16.1 | 0.00 | 0.64 | 0.64 | 92 | 1005.6 |
| 20260507025051 | 14 | 225 | 4.8 | 14.5 | 0.00 | 0.64 | 0.64 | 92 | 1005.6 |
| 20260507024604 | 14 | 225 | 4.8 | 14.5 | 0.00 | 0.64 | 0.64 | 92 | 1005.6 |
| 20260507024053 | 14 | 195 | 6.4 | 14.5 | 0.00 | 0.64 | 0.64 | 92 | 1005.5 |
| 20260507023554 | 14 | 235 | 1.6 | 14.5 | 0.00 | 0.64 | 0.64 | 92 | 1005.5 |
| 20260507023052 | 15 | 218 | 4.8 | 12.9 | 0.00 | 0.64 | 0.64 | 92 | 1005.5 |
| 20260507022555 | 14 | 233 | 4.8 | 12.9 | 0.00 | 0.64 | 0.64 | 92 | 1005.5 |
| 20260507022049 | 14 | 214 | 3.2 | 11.3 | 0.00 | 0.64 | 0.64 | 92 | 1005.3 |
| 20260507021549 | 14 | 237 | 6.4 | 17.7 | 0.00 | 0.64 | 0.64 | 92 | 1005.3 |
| 20260507021048 | 14 | 226 | 4.8 | 17.7 | 0.00 | 0.64 | 0.64 | 92 | 1005.3 |
| 20260507020548 | 14 | 224 | 6.4 | 14.5 | 0.00 | 0.64 | 0.64 | 92 | 1005.3 |
| 20260507020106 | 14 | 176 | 3.2 | 16.1 | 0.00 | 0.64 | 0.64 | 92 | 1005.2 |
| 20260507015547 | 14 | 164 | 1.6 | 16.1 | 0.00 | 0.64 | 0.64 | 92 | 1005.4 |
| 20260507015047 | 14 | 200 | 4.8 | 16.1 | 0.00 | 0.64 | 0.64 | 92 | 1005.4 |
| 20260507014552 | 14 | 196 | 3.2 | 14.5 | 0.00 | 0.64 | 0.64 | 92 | 1005.5 |
| 20260507014046 | 14 | 226 | 4.8 | 12.9 | 0.00 | 0.64 | 0.64 | 92 | 1005.5 |
| 20260507013546 | 14 | 227 | 4.8 | 12.9 | 0.00 | 0.64 | 0.64 | 92 | 1005.4 |
| 20260507013052 | 14 | 188 | 4.8 | 22.5 | 0.00 | 0.64 | 0.64 | 92 | 1005.5 |
| 20260507012542 | 15 | 239 | 4.8 | 22.5 | 0.00 | 0.64 | 0.64 | 92 | 1005.6 |
| 20260507012042 | 15 | 149 | 6.4 | 12.9 | 0.00 | 0.64 | 0.64 | 92 | 1005.5 |
| 20260507011542 | 15 | 193 | 4.8 | 16.1 | 0.00 | 0.64 | 0.64 | 92 | 1005.6 |
| 20260507011042 | 15 | 205 | 4.8 | 16.1 | 0.00 | 0.64 | 0.64 | 92 | 1005.7 |
| 20260507010541 | 15 | 234 | 1.6 | 16.1 | 0.00 | 0.64 | 0.64 | 92 | 1005.6 |
| 20260507010042 | 15 | 188 | 1.6 | 11.3 | 0.00 | 0.64 | 0.64 | 92 | 1005.6 |
| 20260507005541 | 15 | 216 | 4.8 | 17.7 | 0.00 | 0.64 | 0.64 | 92 | 1005.7 |
| 20260507005043 | 15 | 159 | 6.4 | 17.7 | 0.00 | 0.64 | 0.64 | 92 | 1005.6 |
| 20260507004551 | 15 | 172 | 4.8 | 22.5 | 0.00 | 0.64 | 0.64 | 92 | 1005.6 |
| 20260507004041 | 15 | 162 | 6.4 | 14.5 | 0.00 | 0.64 | 0.64 | 92 | 1005.5 |
| 20260507003540 | 15 | 149 | 3.2 | 19.3 | 0.00 | 0.64 | 0.64 | 92 | 1005.3 |
| 20260507003044 | 15 | 199 | 6.4 | 19.3 | 0.00 | 0.64 | 0.64 | 92 | 1005.5 |
| 20260507002538 | 15 | 215 | 6.4 | 16.1 | 0.00 | 0.64 | 0.64 | 92 | 1005.5 |
| 20260507002037 | 15 | 187 | 3.2 | 12.9 | 0.03 | 0.64 | 0.64 | 92 | 1005.6 |
| 20260507001544 | 15 | 213 | 3.2 | 17.7 | 0.08 | 0.64 | 0.64 | 92 | 1005.5 |
| 20260507001036 | 15 | 233 | 6.4 | 17.7 | 0.13 | 0.64 | 0.64 | 92 | 1005.4 |
| 20260507000536 | 15 | 222 | 4.8 | 16.1 | 0.15 | 0.64 | 0.64 | 92 | 1005.4 |
| 20260507000036 | 15 | 167 | 3.2 | 16.1 | 0.15 | 0.64 | 0.64 | 91 | 1005.4 |
| 20260506235535 | 15 | 234 | 6.4 | 14.5 | 0.15 | 0.64 | 0.64 | 91 | 1005.2 |
| 20260506235035 | 15 | 172 | 3.2 | 14.5 | 0.18 | 0.64 | 0.64 | 91 | 1005.2 |
| 20260506234538 | 15 | 161 | 6.4 | 16.1 | 0.20 | 0.64 | 0.64 | 91 | 1005.2 |
| 20260506234034 | 15 | 218 | 6.4 | 16.1 | 0.23 | 0.64 | 0.64 | 91 | 1005.1 |
| 20260506233534 | 15 | 135 | 4.8 | 14.5 | 0.23 | 0.64 | 0.64 | 91 | 1005.2 |
| 20260506233034 | 15 | 206 | 1.6 | 22.5 | 0.25 | 0.64 | 0.64 | 91 | 1005.2 |
| 20260506232532 | 15 | 170 | 6.4 | 24.1 | 0.25 | 0.64 | 0.64 | 91 | 1005.3 |
| 20260506232033 | 15 | 242 | 4.8 | 17.7 | 0.23 | 0.61 | 0.61 | 91 | 1005.4 |
| 20260506231531 | 15 | 201 | 1.6 | 17.7 | 0.20 | 0.56 | 0.56 | 91 | 1005.4 |
| 20260506231031 | 15 | 197 | 1.6 | 17.7 | 0.15 | 0.51 | 0.51 | 91 | 1005.4 |
| 20260506230529 | 15 | 242 | 4.8 | 16.1 | 0.15 | 0.48 | 0.48 | 91 | 1005.6 |
| 20260506230029 | 15 | 193 | 4.8 | 16.1 | 0.15 | 0.48 | 0.48 | 91 | 1005.7 |
| 20260506225529 | 15 | 199 | 3.2 | 16.1 | 0.15 | 0.46 | 0.46 | 91 | 1005.6 |
| 20260506225029 | 15 | 183 | 4.8 | 16.1 | 0.18 | 0.46 | 0.46 | 91 | 1005.6 |
| 20260506224533 | 15 | 206 | 3.2 | 11.3 | 0.13 | 0.41 | 0.41 | 91 | 1005.5 |
| 20260506224029 | 15 | 175 | 4.8 | 20.9 | 0.13 | 0.41 | 0.41 | 90 | 1005.5 |
| 20260506223527 | 15 | 179 | 6.4 | 19.3 | 0.13 | 0.41 | 0.41 | 90 | 1005.6 |
| 20260506223036 | 15 | 187 | 4.8 | 19.3 | 0.10 | 0.38 | 0.38 | 90 | 1005.6 |
| 20260506222527 | 15 | 161 | 4.8 | 14.5 | 0.10 | 0.38 | 0.38 | 90 | 1005.7 |
| 20260506222029 | 15 | 183 | 3.2 | 14.5 | 0.10 | 0.38 | 0.38 | 90 | 1005.6 |
| 20260506221525 | 15 | 198 | 4.8 | 9.7 | 0.08 | 0.36 | 0.36 | 90 | 1005.8 |
| 20260506221024 | 15 | 114 | 1.6 | 9.7 | 0.08 | 0.36 | 0.36 | 90 | 1005.7 |
| 20260506220524 | 15 | 201 | 0.0 | 8.0 | 0.08 | 0.33 | 0.33 | 90 | 1005.8 |
| 20260506220025 | 15 | 158 | 1.6 | 11.3 | 0.05 | 0.30 | 0.30 | 90 | 1005.9 |
| 20260506215523 | 15 | 186 | 1.6 | 11.3 | 0.03 | 0.28 | 0.28 | 90 | 1006.1 |
| 20260506215029 | 15 | 180 | 1.6 | 12.9 | 0.05 | 0.28 | 0.28 | 90 | 1005.9 |
| 20260506214536 | 15 | 208 | 3.2 | 12.9 | 0.05 | 0.28 | 0.28 | 90 | 1005.8 |
| 20260506214023 | 15 | 189 | 4.8 | 19.3 | 0.05 | 0.28 | 0.28 | 90 | 1005.9 |
| 20260506213526 | 15 | 234 | 6.4 | 19.3 | 0.05 | 0.28 | 0.28 | 90 | 1006.0 |
| 20260506213023 | 15 | 183 | 3.2 | 14.5 | 0.08 | 0.28 | 0.28 | 89 | 1006.0 |
| 20260506212521 | 15 | 287 | 3.2 | 12.9 | 0.08 | 0.28 | 0.28 | 89 | 1006.2 |
| 20260506212020 | 15 | 191 | 3.2 | 17.7 | 0.10 | 0.28 | 0.28 | 89 | 1006.2 |
| 20260506211520 | 15 | 182 | 8.0 | 17.7 | 0.10 | 0.28 | 0.28 | 89 | 1006.2 |
| 20260506211019 | 15 | 147 | 4.8 | 14.5 | 0.13 | 0.28 | 0.28 | 89 | 1006.3 |
| 20260506210518 | 15 | 118 | 3.2 | 12.9 | 0.10 | 0.25 | 0.25 | 89 | 1006.4 |
| 20260506210021 | 15 | 210 | 4.8 | 12.9 | 0.13 | 0.25 | 0.25 | 89 | 1006.4 |
| 20260506205518 | 15 | 164 | 4.8 | 14.5 | 0.13 | 0.25 | 0.25 | 89 | 1006.5 |
| 20260506205018 | 16 | 191 | 4.8 | 22.5 | 0.10 | 0.23 | 0.23 | 89 | 1006.5 |
| 20260506204517 | 16 | 220 | 8.0 | 24.1 | 0.10 | 0.23 | 0.23 | 88 | 1006.6 |
| 20260506204016 | 16 | 237 | 8.0 | 24.1 | 0.10 | 0.23 | 0.23 | 88 | 1006.4 |
| 20260506203516 | 16 | 245 | 3.2 | 24.1 | 0.08 | 0.20 | 0.20 | 88 | 1006.5 |
| 20260506203019 | 16 | 258 | 3.2 | 17.7 | 0.10 | 0.20 | 0.20 | 87 | 1006.5 |
| 20260506202515 | 16 | 140 | 1.6 | 12.9 | 0.10 | 0.20 | 0.20 | 88 | 1006.4 |
| 20260506202014 | 16 | 175 | 3.2 | 14.5 | 0.10 | 0.18 | 0.18 | 87 | 1006.4 |
| 20260506201515 | 16 | 167 | 1.6 | 14.5 | 0.10 | 0.18 | 0.18 | 87 | 1006.4 |
| 20260506201019 | 16 | 198 | 6.4 | 17.7 | 0.10 | 0.15 | 0.15 | 87 | 1006.5 |
| 20260506200513 | 16 | 231 | 8.0 | 17.7 | 0.10 | 0.15 | 0.15 | 87 | 1006.4 |
| 20260506200013 | 16 | 232 | 3.2 | 11.3 | 0.10 | 0.13 | 0.13 | 86 | 1006.4 |
| 20260506195513 | 16 | 199 | 3.2 | 11.3 | 0.10 | 0.13 | 0.13 | 86 | 1006.4 |
| 20260506195013 | 17 | 218 | 4.8 | 16.1 | 0.10 | 0.13 | 0.13 | 86 | 1006.5 |
| 20260506194513 | 17 | 206 | 4.8 | 16.1 | 0.10 | 0.13 | 0.13 | 85 | 1006.3 |
| 20260506194017 | 17 | 191 | 4.8 | 9.7 | 0.13 | 0.13 | 0.13 | 84 | 1006.4 |
| 20260506193512 | 17 | 208 | 1.6 | 11.3 | 0.13 | 0.13 | 0.13 | 84 | 1006.6 |
| 20260506193014 | 17 | 185 | 1.6 | 11.3 | 0.10 | 0.10 | 0.10 | 83 | 1006.6 |
| 20260506192511 | 18 | 190 | 1.6 | 14.5 | 0.10 | 0.10 | 0.10 | 82 | 1006.2 |
| 20260506192010 | 18 | 269 | 1.6 | 14.5 | 0.08 | 0.08 | 0.08 | 81 | 1006.5 |
| 20260506191510 | 18 | 190 | 3.2 | 17.7 | 0.08 | 0.08 | 0.08 | 79 | 1006.6 |
| 20260506191010 | 18 | 218 | 6.4 | 17.7 | 0.05 | 0.05 | 0.05 | 77 | 1006.5 |
| 20260506190514 | 18 | 222 | 8.0 | 22.5 | 0.05 | 0.05 | 0.05 | 76 | 1006.6 |
| 20260506190013 | 19 | 233 | 9.7 | 24.1 | 0.03 | 0.03 | 0.03 | 74 | 1006.7 |
| 20260506185509 | 19 | 179 | 11.3 | 24.1 | 0.03 | 0.03 | 0.03 | 73 | 1006.6 |
| 20260506185013 | 20 | 272 | 3.2 | 22.5 | 0.03 | 0.03 | 0.03 | 72 | 1006.7 |
| 20260506184515 | 20 | 181 | 11.3 | 22.5 | 0.03 | 0.03 | 0.03 | 71 | 1006.5 |
| 20260506184013 | 20 | 241 | 4.8 | 16.1 | 0.00 | 0.00 | 0.00 | 70 | 1006.6 |
| 20260506183510 | 20 | 237 | 8.0 | 16.1 | 0.00 | 0.00 | 0.00 | 68 | 1006.6 |
| 20260506183018 | 20 | 239 | 4.8 | 19.3 | 0.00 | 0.00 | 0.00 | 67 | 1006.7 |
| 20260506182509 | 21 | 268 | 6.4 | 16.1 | 0.00 | 0.00 | 0.00 | 65 | 1006.6 |
| 20260506182012 | 21 | 208 | 8.0 | 29.0 | 0.00 | 0.00 | 0.00 | 64 | 1006.6 |
| 20260506181514 | 21 | 249 | 9.7 | 32.2 | 0.00 | 0.00 | 0.00 | 64 | 1006.5 |
| 20260506181011 | 21 | 215 | 9.7 | 27.4 | 0.00 | 0.00 | 0.00 | 64 | 1006.6 |
| 20260506180509 | 21 | 196 | 6.4 | 19.3 | 0.00 | 0.00 | 0.00 | 63 | 1006.5 |
| 20260506180008 | 21 | 251 | 6.4 | 14.5 | 0.00 | 0.00 | 0.00 | 61 | 1006.6 |
| 20260506175508 | 21 | 171 | 3.2 | 24.1 | 0.00 | 0.00 | 0.00 | 61 | 1006.6 |
| 20260506175007 | 22 | 236 | 8.0 | 24.1 | 0.00 | 0.00 | 0.00 | 60 | 1006.6 |
| 20260506174508 | 22 | 193 | 4.8 | 20.9 | 0.00 | 0.00 | 0.00 | 60 | 1006.7 |
| 20260506174008 | 22 | 140 | 8.0 | 32.2 | 0.00 | 0.00 | 0.00 | 60 | 1006.5 |
| 20260506173508 | 22 | 233 | 8.0 | 27.4 | 0.00 | 0.00 | 0.00 | 60 | 1006.7 |
| 20260506173006 | 22 | 241 | 6.4 | 27.4 | 0.00 | 0.00 | 0.00 | 60 | 1006.4 |
| 20260506172505 | 22 | 181 | 6.4 | 22.5 | 0.00 | 0.00 | 0.00 | 60 | 1006.7 |
| 20260506172005 | 22 | 276 | 4.8 | 38.6 | 0.00 | 0.00 | 0.00 | 60 | 1006.8 |
| 20260506171507 | 22 | 183 | 8.0 | 38.6 | 0.00 | 0.00 | 0.00 | 60 | 1006.9 |
| 20260506171005 | 22 | 183 | 6.4 | 20.9 | 0.00 | 0.00 | 0.00 | 60 | 1006.9 |
| 20260506170504 | 22 | 224 | 6.4 | 24.1 | 0.00 | 0.00 | 0.00 | 61 | 1006.9 |
| 20260506170005 | 22 | 226 | 11.3 | 24.1 | 0.00 | 0.00 | 0.00 | 61 | 1007.0 |
| 20260506165502 | 21 | 177 | 8.0 | 17.7 | 0.00 | 0.00 | 0.00 | 61 | 1007.0 |
| 20260506165003 | 21 | 173 | 3.2 | 20.9 | 0.00 | 0.00 | 0.00 | 61 | 1007.2 |
| 20260506164503 | 21 | 253 | 6.4 | 19.3 | 0.00 | 0.00 | 0.00 | 61 | 1007.3 |
| 20260506164002 | 22 | 238 | 8.0 | 16.1 | 0.00 | 0.00 | 0.00 | 62 | 1007.4 |
| 20260506163600 | 21 | 237 | 4.8 | 19.3 | 0.00 | 0.00 | 0.00 | 62 | 1007.3 |
| 20260506163104 | 21 | 235 | 8.0 | 19.3 | 0.00 | 0.00 | 0.00 | 62 | 1007.4 |
| 20260506162558 | 21 | 219 | 6.4 | 24.1 | 0.00 | 0.00 | 0.00 | 62 | 1007.5 |
| 20260506162101 | 21 | 157 | 8.0 | 14.5 | 0.00 | 0.00 | 0.00 | 61 | 1007.6 |
| 20260506161557 | 22 | 164 | 4.8 | 19.3 | 0.00 | 0.00 | 0.00 | 62 | 1007.6 |
| 20260506161058 | 21 | 214 | 8.0 | 22.5 | 0.00 | 0.00 | 0.00 | 63 | 1007.8 |
| 20260506160555 | 21 | 237 | 8.0 | 19.3 | 0.00 | 0.00 | 0.00 | 63 | 1008.0 |
| 20260506160057 | 21 | 181 | 3.2 | 25.7 | 0.00 | 0.00 | 0.00 | 64 | 1008.1 |
| 20260506155557 | 21 | 212 | 6.4 | 25.7 | 0.00 | 0.00 | 0.00 | 65 | 1008.1 |
| 20260506155053 | 21 | 236 | 9.7 | 22.5 | 0.00 | 0.00 | 0.00 | 65 | 1008.2 |
| 20260506154555 | 21 | 181 | 3.2 | 25.7 | 0.00 | 0.00 | 0.00 | 65 | 1008.3 |
| 20260506154052 | 21 | 231 | 12.9 | 29.0 | 0.00 | 0.00 | 0.00 | 64 | 1008.4 |
| 20260506153552 | 21 | 241 | 8.0 | 29.0 | 0.00 | 0.00 | 0.00 | 64 | 1008.6 |
| 20260506153110 | 21 | 219 | 11.3 | 33.8 | 0.00 | 0.00 | 0.00 | 65 | 1008.6 |
| 20260506152551 | 21 | 243 | 4.8 | 33.8 | 0.00 | 0.00 | 0.00 | 64 | 1008.6 |
| 20260506152051 | 21 | 209 | 11.3 | 30.6 | 0.00 | 0.00 | 0.00 | 64 | 1008.9 |
| 20260506151552 | 21 | 214 | 12.9 | 37.0 | 0.00 | 0.00 | 0.00 | 64 | 1008.7 |
| 20260506151055 | 21 | 216 | 9.7 | 32.2 | 0.00 | 0.00 | 0.00 | 64 | 1008.6 |
| 20260506150551 | 21 | 211 | 11.3 | 33.8 | 0.00 | 0.00 | 0.00 | 65 | 1008.6 |
| 20260506150058 | 21 | 79 | 3.2 | 16.1 | 0.00 | 0.00 | 0.00 | 67 | 1008.7 |
| 20260506145550 | 21 | 136 | 6.4 | 16.1 | 0.00 | 0.00 | 0.00 | 66 | 1008.9 |
| 20260506145049 | 21 | 184 | 4.8 | 27.4 | 0.00 | 0.00 | 0.00 | 67 | 1008.9 |
| 20260506144556 | 21 | 168 | 4.8 | 27.4 | 0.00 | 0.00 | 0.00 | 68 | 1008.8 |
| 20260506144048 | 20 | 208 | 4.8 | 12.9 | 0.00 | 0.00 | 0.00 | 68 | 1008.7 |
| 20260506143549 | 20 | 133 | 3.2 | 16.1 | 0.00 | 0.00 | 0.00 | 69 | 1008.7 |
| 20260506143048 | 20 | 167 | 6.4 | 16.1 | 0.00 | 0.00 | 0.00 | 67 | 1008.8 |
| 20260506142547 | 21 | 154 | 3.2 | 19.3 | 0.00 | 0.00 | 0.00 | 68 | 1008.7 |
| 20260506142045 | 20 | 255 | 3.2 | 29.0 | 0.00 | 0.00 | 0.00 | 69 | 1008.5 |
| 20260506141545 | 20 | 172 | 8.0 | 29.0 | 0.00 | 0.00 | 0.00 | 70 | 1008.4 |
| 20260506141044 | 20 | 163 | 6.4 | 24.1 | 0.00 | 0.00 | 0.00 | 71 | 1008.6 |
| 20260506140548 | 20 | 166 | 3.2 | 20.9 | 0.00 | 0.00 | 0.00 | 72 | 1008.6 |
| 20260506140042 | 19 | 153 | 9.7 | 20.9 | 0.00 | 0.00 | 0.00 | 72 | 1008.7 |
| 20260506135540 | 19 | 210 | 6.4 | 19.3 | 0.00 | 0.00 | 0.00 | 73 | 1008.7 |
| 20260506135039 | 18 | 151 | 6.4 | 14.5 | 0.00 | 0.00 | 0.00 | 73 | 1008.9 |
| 20260506134538 | 18 | 134 | 3.2 | 17.7 | 0.00 | 0.00 | 0.00 | 74 | 1008.9 |
| 20260506134041 | 18 | 248 | 3.2 | 16.1 | 0.00 | 0.00 | 0.00 | 74 | 1009.0 |
| 20260506133537 | 18 | 179 | 4.8 | 22.5 | 0.00 | 0.00 | 0.00 | 74 | 1009.1 |
| 20260506133035 | 18 | 194 | 8.0 | 24.1 | 0.00 | 0.00 | 0.00 | 75 | 1009.1 |
| 20260506132538 | 18 | 231 | 6.4 | 24.1 | 0.00 | 0.00 | 0.00 | 75 | 1009.2 |
| 20260506132034 | 18 | 270 | 6.4 | 14.5 | 0.00 | 0.00 | 0.00 | 75 | 1009.3 |
| 20260506131539 | 18 | 223 | 6.4 | 24.1 | 0.00 | 0.00 | 0.00 | 75 | 1009.3 |
| 20260506131033 | 18 | 171 | 8.0 | 25.7 | 0.00 | 0.00 | 0.00 | 75 | 1009.2 |
| 20260506130532 | 18 | 218 | 4.8 | 25.7 | 0.00 | 0.00 | 0.00 | 75 | 1009.2 |
| 20260506130034 | 18 | 256 | 8.0 | 25.7 | 0.00 | 0.00 | 0.00 | 75 | 1009.3 |
| 20260506125532 | 18 | 153 | 8.0 | 19.3 | 0.00 | 0.00 | 0.00 | 75 | 1009.3 |
| 20260506125034 | 18 | 235 | 4.8 | 14.5 | 0.00 | 0.00 | 0.00 | 76 | 1009.2 |
| 20260506124531 | 17 | 253 | 6.4 | 16.1 | 0.00 | 0.00 | 0.00 | 76 | 1009.2 |
| 20260506124035 | 17 | 93 | 4.8 | 16.1 | 0.00 | 0.00 | 0.00 | 76 | 1009.0 |
| 20260506123531 | 17 | 139 | 4.8 | 12.9 | 0.00 | 0.00 | 0.00 | 77 | 1009.1 |
| 20260506123031 | 17 | 154 | 3.2 | 22.5 | 0.00 | 0.00 | 0.00 | 77 | 1009.1 |
| 20260506122531 | 17 | 212 | 6.4 | 17.7 | 0.00 | 0.00 | 0.00 | 77 | 1009.3 |
| 20260506122031 | 17 | 200 | 8.0 | 24.1 | 0.00 | 0.00 | 0.00 | 76 | 1009.4 |
| 20260506121530 | 17 | 181 | 9.7 | 22.5 | 0.00 | 0.00 | 0.00 | 76 | 1009.4 |
| 20260506121030 | 17 | 241 | 6.4 | 17.7 | 0.00 | 0.00 | 0.00 | 77 | 1009.4 |
| 20260506120532 | 17 | 268 | 6.4 | 17.7 | 0.00 | 0.00 | 0.00 | 79 | 1009.4 |
| 20260506120028 | 16 | 162 | 6.4 | 14.5 | 0.00 | 0.00 | 0.00 | 78 | 1009.4 |
| 20260506115531 | 16 | 224 | 3.2 | 14.5 | 0.00 | 0.00 | 0.00 | 78 | 1009.6 |
| 20260506115028 | 16 | 199 | 4.8 | 12.9 | 0.00 | 0.00 | 0.00 | 79 | 1009.6 |
| 20260506114529 | 16 | 200 | 4.8 | 17.7 | 0.00 | 0.00 | 0.00 | 79 | 1009.6 |
| 20260506114027 | 16 | 177 | 6.4 | 20.9 | 0.00 | 0.00 | 0.00 | 79 | 1009.7 |
| 20260506113528 | 16 | 193 | 6.4 | 20.9 | 0.00 | 0.00 | 0.00 | 79 | 1009.7 |
| 20260506113036 | 16 | 222 | 4.8 | 17.7 | 0.00 | 0.00 | 0.00 | 79 | 1009.7 |
| 20260506112527 | 16 | 178 | 4.8 | 17.7 | 0.00 | 0.00 | 0.00 | 79 | 1009.8 |
| 20260506112026 | 16 | 212 | 6.4 | 24.1 | 0.00 | 0.00 | 0.00 | 79 | 1009.9 |
| 20260506111528 | 16 | 238 | 8.0 | 22.5 | 0.00 | 0.00 | 0.00 | 79 | 1009.7 |
| 20260506111027 | 16 | 189 | 4.8 | 12.9 | 0.00 | 0.00 | 0.00 | 80 | 1009.6 |
| 20260506110526 | 16 | 114 | 1.6 | 12.9 | 0.00 | 0.00 | 0.00 | 81 | 1009.6 |
| 20260506110026 | 15 | 110 | 4.8 | 12.9 | 0.00 | 0.00 | 0.00 | 81 | 1009.7 |
| 20260506105525 | 15 | 228 | 3.2 | 11.3 | 0.00 | 0.00 | 0.00 | 81 | 1010.0 |
| 20260506105023 | 15 | 188 | 1.6 | 11.3 | 0.00 | 0.00 | 0.00 | 80 | 1010.0 |
| 20260506104525 | 15 | 177 | 3.2 | 16.1 | 0.00 | 0.00 | 0.00 | 80 | 1010.0 |
| 20260506104022 | 15 | 359 | 3.2 | 16.1 | 0.00 | 0.00 | 0.00 | 80 | 1009.8 |
| 20260506103525 | 15 | 208 | 4.8 | 12.9 | 0.00 | 0.00 | 0.00 | 80 | 1009.7 |
| 20260506103025 | 15 | 243 | 4.8 | 14.5 | 0.00 | 0.00 | 0.00 | 80 | 1009.7 |
| 20260506102521 | 15 | 233 | 3.2 | 14.5 | 0.00 | 0.00 | 0.00 | 80 | 1009.6 |
| 20260506102020 | 15 | 177 | 1.6 | 12.9 | 0.00 | 0.00 | 0.00 | 80 | 1009.7 |
| 20260506101519 | 15 | 231 | 6.4 | 14.5 | 0.00 | 0.00 | 0.00 | 80 | 1009.7 |
| 20260506101017 | 15 | 176 | 3.2 | 12.9 | 0.00 | 0.00 | 0.00 | 80 | 1009.7 |
| 20260506100517 | 15 | 136 | 1.6 | 9.7 | 0.00 | 0.00 | 0.00 | 80 | 1009.7 |
| 20260506100017 | 15 | 215 | 1.6 | 12.9 | 0.00 | 0.00 | 0.00 | 80 | 1009.8 |
| 20260506095516 | 15 | 172 | 4.8 | 12.9 | 0.00 | 0.00 | 0.00 | 80 | 1009.8 |
| 20260506095018 | 15 | 33 | 3.2 | 17.7 | 0.00 | 0.00 | 0.00 | 80 | 1009.7 |
| 20260506094515 | 15 | 180 | 4.8 | 16.1 | 0.00 | 0.00 | 0.00 | 80 | 1009.5 |
| 20260506094014 | 15 | 170 | 1.6 | 14.5 | 0.00 | 0.00 | 0.00 | 80 | 1009.5 |
| 20260506093514 | 15 | 291 | 3.2 | 14.5 | 0.00 | 0.00 | 0.00 | 79 | 1009.7 |
| 20260506093013 | 15 | 245 | 3.2 | 14.5 | 0.00 | 0.00 | 0.00 | 79 | 1009.7 |
| 20260506092513 | 15 | 179 | 3.2 | 11.3 | 0.00 | 0.00 | 0.00 | 79 | 1009.7 |
| 20260506092012 | 15 | 154 | 3.2 | 14.5 | 0.00 | 0.00 | 0.00 | 79 | 1009.7 |
| 20260506091512 | 15 | 187 | 4.8 | 12.9 | 0.00 | 0.00 | 0.00 | 79 | 1009.7 |
| 20260506091010 | 15 | 177 | 4.8 | 17.7 | 0.00 | 0.00 | 0.00 | 78 | 1009.5 |
| 20260506090511 | 15 | 181 | 8.0 | 17.7 | 0.00 | 0.00 | 0.00 | 78 | 1009.7 |
| 20260506090013 | 15 | 183 | 1.6 | 8.0 | 0.00 | 0.00 | 0.00 | 78 | 1009.7 |